NK0V Weather Reports


time (UTC)temp
C
wind
direction
speed
KPH
gust
KPH
rain 1hr
cm
rain 24hr
cm
rain mn
cm
humidity
%
barometer
mb
20260504192100 13 290 16.1 40.2 0.00 0.00 0.00 41 1005.2
20260504191559 14 5 16.1 40.2 0.00 0.00 0.00 42 1005.1
20260504191058 14 282 12.9 35.4 0.00 0.00 0.00 43 1005.1
20260504190555 14 317 11.3 35.4 0.00 0.00 0.00 42 1004.9
20260504190107 14 292 19.3 43.5 0.00 0.00 0.00 41 1004.8
20260504185554 14 271 22.5 43.5 0.00 0.00 0.00 41 1004.8
20260504185054 14 292 19.3 37.0 0.00 0.00 0.00 44 1004.8
20260504184556 14 310 16.1 37.0 0.00 0.00 0.00 43 1004.8
20260504184101 14 313 20.9 37.0 0.00 0.00 0.00 42 1005.0
20260504183555 14 326 17.7 33.8 0.00 0.00 0.00 43 1005.0
20260504183102 14 311 19.3 37.0 0.00 0.00 0.00 42 1004.9
20260504182558 13 307 19.3 37.0 0.00 0.00 0.00 43 1004.9
20260504182058 13 285 17.7 37.0 0.00 0.00 0.00 41 1004.8
20260504181559 13 312 14.5 37.0 0.00 0.00 0.00 41 1004.8
20260504181058 13 321 16.1 37.0 0.00 0.00 0.00 40 1004.8
20260504180557 14 298 20.9 37.0 0.00 0.00 0.00 40 1004.7
20260504180138 14 317 16.1 30.6 0.00 0.00 0.00 39 1004.6
20260504175555 15 338 16.1 33.8 0.00 0.00 0.00 39 1004.4
20260504175055 15 319 16.1 40.2 0.00 0.00 0.00 38 1004.4
20260504174555 15 285 19.3 40.2 0.00 0.00 0.00 38 1004.4
20260504174055 15 323 17.7 37.0 0.00 0.00 0.00 39 1004.3
20260504173555 15 302 17.7 35.4 0.00 0.00 0.00 39 1004.2
20260504173055 15 317 12.9 32.2 0.00 0.00 0.00 38 1004.2
20260504172558 15 337 17.7 33.8 0.00 0.00 0.00 38 1004.0
20260504172058 15 309 16.1 33.8 0.00 0.00 0.00 38 1003.9
20260504171601 15 309 16.1 35.4 0.00 0.00 0.00 38 1003.9
20260504171058 15 334 17.7 35.4 0.00 0.00 0.00 39 1003.9
20260504170558 15 267 17.7 38.6 0.00 0.00 0.00 38 1003.9
20260504151059 13 305 16.1 30.6 0.00 0.00 0.00 47 1002.8
20260504150558 13 307 9.7 32.2 0.00 0.00 0.00 50 1002.6
20260504141057 13 297 9.7 27.4 0.00 0.00 0.00 49 1002.3
20260504140557 13 292 8.0 25.7 0.00 0.00 0.00 49 1002.2
20260504130559 10 345 4.8 12.9 0.00 0.00 0.00 69 1001.6
20260504120109 10 293 9.7 19.3 0.00 0.00 0.00 67 1000.8
20260504110556 11 246 6.4 14.5 0.00 0.00 0.00 58 1000.1
20260504100557 11 260 8.0 24.1 0.00 0.00 0.00 55 999.6
20260504100116 11 253 9.7 24.1 0.00 0.00 0.00 55 999.5
20260504081558 9 212 8.0 16.1 0.00 0.00 0.00 55 1000.5
20260504081056 9 219 8.0 17.7 0.00 0.00 0.00 55 1000.7
20260504080556 9 217 8.0 17.7 0.00 0.00 0.00 55 1000.6
20260504060106 9 194 8.0 12.9 0.00 0.00 0.00 52 1002.8
20260504050559 10 226 4.8 11.3 0.00 0.00 0.00 51 1003.5
20260504050119 10 217 6.4 11.3 0.00 0.00 0.00 50 1003.5
20260504045559 10 222 6.4 14.5 0.00 0.00 0.00 50 1003.5
20260504045059 10 209 6.4 14.5 0.00 0.00 0.00 49 1003.6
20260504044559 10 214 8.0 14.5 0.00 0.00 0.00 49 1003.7
20260504044100 10 217 6.4 12.9 0.00 0.00 0.00 48 1003.8
20260504043602 10 221 4.8 14.5 0.00 0.00 0.00 48 1003.9
20260504043107 11 209 6.4 14.5 0.00 0.00 0.00 47 1004.0
20260504042601 11 218 8.0 11.3 0.00 0.00 0.00 46 1004.0
20260504042102 11 222 6.4 11.3 0.00 0.00 0.00 46 1004.0
20260504041607 11 220 6.4 11.3 0.00 0.00 0.00 46 1004.2
20260504041059 11 215 8.0 14.5 0.00 0.00 0.00 45 1004.4
20260504040602 11 212 4.8 14.5 0.00 0.00 0.00 44 1004.5
20260504040104 11 221 4.8 9.7 0.00 0.00 0.00 44 1004.6
20260504035559 11 196 6.4 12.9 0.00 0.00 0.00 43 1004.6
20260504035059 11 209 6.4 12.9 0.00 0.00 0.00 43 1004.6
20260504034618 11 211 8.0 12.9 0.00 0.00 0.00 42 1004.7
20260504034100 11 213 6.4 11.3 0.00 0.00 0.00 41 1004.8
20260504033600 12 243 1.6 6.4 0.00 0.00 0.00 42 1004.9
20260504033104 12 241 1.6 8.0 0.00 0.00 0.00 41 1005.0
20260504032600 12 234 3.2 9.7 0.00 0.00 0.00 41 1005.0
20260504032102 12 217 4.8 9.7 0.00 0.00 0.00 41 1005.0
20260504031604 12 219 4.8 8.0 0.00 0.00 0.00 40 1005.1
20260504031103 12 220 3.2 8.0 0.00 0.00 0.00 40 1005.3
20260504030556 12 227 3.2 8.0 0.00 0.00 0.00 40 1005.3
20260504030110 13 219 4.8 8.0 0.00 0.00 0.00 40 1005.3
20260504025559 13 220 4.8 8.0 0.00 0.00 0.00 39 1005.4
20260504025102 13 221 4.8 8.0 0.00 0.00 0.00 38 1005.5
20260504024558 13 214 4.8 8.0 0.00 0.00 0.00 38 1005.5
20260504024101 13 241 1.6 4.8 0.00 0.00 0.00 38 1005.6
20260504023600 14 230 1.6 6.4 0.00 0.00 0.00 38 1005.5
20260504023059 14 224 1.6 11.3 0.00 0.00 0.00 37 1005.5
20260504022557 14 229 4.8 11.3 0.00 0.00 0.00 36 1005.5
20260504022059 15 221 3.2 6.4 0.00 0.00 0.00 35 1005.6
20260504021600 15 232 3.2 6.4 0.00 0.00 0.00 35 1005.6
20260504021058 15 221 3.2 6.4 0.00 0.00 0.00 35 1005.7
20260504020555 16 236 3.2 6.4 0.00 0.00 0.00 34 1005.7
20260504020109 16 239 3.2 6.4 0.00 0.00 0.00 34 1005.8
20260504015557 16 239 3.2 6.4 0.00 0.00 0.00 33 1005.8
20260504015057 16 230 3.2 6.4 0.00 0.00 0.00 32 1005.9
20260504014605 17 237 3.2 9.7 0.00 0.00 0.00 31 1005.9
20260504014056 17 244 4.8 11.3 0.00 0.00 0.00 30 1005.9
20260504013556 17 254 3.2 11.3 0.00 0.00 0.00 29 1006.0
20260504013107 17 267 4.8 11.3 0.00 0.00 0.00 29 1005.9
20260504012559 18 266 4.8 11.3 0.00 0.00 0.00 28 1005.9
20260504012056 18 240 3.2 11.3 0.00 0.00 0.00 28 1005.9
20260504011600 18 271 4.8 12.9 0.00 0.00 0.00 27 1005.9
20260504011058 18 265 6.4 12.9 0.00 0.00 0.00 27 1006.0
20260504010555 18 258 6.4 14.5 0.00 0.00 0.00 27 1005.9
20260504005556 19 280 4.8 17.7 0.00 0.00 0.00 26 1005.9
20260504005100 19 276 8.0 20.9 0.00 0.00 0.00 25 1006.0
20260504004612 20 272 8.0 20.9 0.00 0.00 0.00 24 1006.0
20260504004055 20 265 9.7 20.9 0.00 0.00 0.00 24 1006.0
20260504003556 20 234 9.7 20.9 0.00 0.00 0.00 24 1006.0
20260504003102 20 294 11.3 20.9 0.00 0.00 0.00 23 1006.0
20260504002600 20 269 9.7 22.5 0.00 0.00 0.00 23 1006.1
20260504002056 20 242 11.3 22.5 0.00 0.00 0.00 24 1006.1
20260504001602 20 242 8.0 20.9 0.00 0.00 0.00 24 1006.1
20260504001056 20 281 9.7 24.1 0.00 0.00 0.00 24 1006.1
20260504000555 20 274 12.9 24.1 0.00 0.00 0.00 23 1006.2
20260504000106 20 257 11.3 20.9 0.00 0.00 0.00 23 1006.3
20260503235556 20 278 8.0 20.9 0.00 0.00 0.00 24 1006.4
20260503235057 20 252 11.3 20.9 0.00 0.00 0.00 24 1006.4
20260503234603 20 285 9.7 24.1 0.00 0.00 0.00 24 1006.5
20260503234058 20 288 8.0 24.1 0.00 0.00 0.00 25 1006.7
20260503233600 20 263 9.7 24.1 0.00 0.00 0.00 25 1006.8
20260503233110 20 259 11.3 24.1 0.00 0.00 0.00 25 1006.8
20260503232558 20 250 9.7 24.1 0.00 0.00 0.00 26 1006.8
20260503232057 20 246 9.7 25.7 0.00 0.00 0.00 27 1007.0
20260503231604 20 275 12.9 25.7 0.00 0.00 0.00 26 1007.0
20260503231057 20 267 16.1 25.7 0.00 0.00 0.00 26 1007.1
20260503230558 21 267 9.7 27.4 0.00 0.00 0.00 27 1007.1
20260503230108 21 240 14.5 27.4 0.00 0.00 0.00 27 1007.1
20260503225557 21 290 11.3 27.4 0.00 0.00 0.00 27 1007.1
20260503225057 21 284 12.9 27.4 0.00 0.00 0.00 27 1007.2
20260503224603 21 253 16.1 27.4 0.00 0.00 0.00 25 1007.2
20260503224057 21 268 11.3 25.7 0.00 0.00 0.00 27 1007.2
20260503223557 21 278 11.3 25.7 0.00 0.00 0.00 27 1007.4
20260503223056 21 296 11.3 24.1 0.00 0.00 0.00 27 1007.4
20260503222559 21 252 11.3 24.1 0.00 0.00 0.00 26 1007.4
20260503222057 21 282 8.0 22.5 0.00 0.00 0.00 28 1007.3
20260503221601 21 290 12.9 30.6 0.00 0.00 0.00 25 1007.4
20260503221101 21 275 11.3 30.6 0.00 0.00 0.00 26 1007.4
20260503220558 21 241 12.9 25.7 0.00 0.00 0.00 28 1007.5
20260503220058 21 262 9.7 25.7 0.00 0.00 0.00 27 1007.6
20260503215558 21 293 6.4 19.3 0.00 0.00 0.00 29 1007.6
20260503215057 21 265 9.7 22.5 0.00 0.00 0.00 29 1007.6
20260503214555 21 317 11.3 22.5 0.00 0.00 0.00 28 1007.8
20260503214057 21 252 8.0 24.1 0.00 0.00 0.00 28 1007.9
20260503213558 21 331 11.3 24.1 0.00 0.00 0.00 27 1008.0
20260503213103 21 288 9.7 20.9 0.00 0.00 0.00 28 1008.0
20260503212557 21 291 9.7 20.9 0.00 0.00 0.00 27 1008.1
20260503212057 21 258 8.0 20.9 0.00 0.00 0.00 28 1008.2
20260503211613 21 267 11.3 20.9 0.00 0.00 0.00 25 1008.3
20260503211056 21 267 11.3 27.4 0.00 0.00 0.00 25 1008.3
20260503210557 21 273 11.3 27.4 0.00 0.00 0.00 27 1008.3
20260503210057 21 273 11.3 22.5 0.00 0.00 0.00 26 1008.3
20260503205557 21 265 14.5 22.5 0.00 0.00 0.00 27 1008.3
20260503205058 21 260 6.4 29.0 0.00 0.00 0.00 28 1008.5
20260503204559 21 281 12.9 29.0 0.00 0.00 0.00 26 1008.5
20260503204057 21 257 8.0 20.9 0.00 0.00 0.00 28 1008.6
20260503203557 21 232 11.3 24.1 0.00 0.00 0.00 28 1008.6
20260503203057 21 296 12.9 25.7 0.00 0.00 0.00 27 1008.7
20260503202556 21 275 12.9 32.2 0.00 0.00 0.00 27 1008.8
20260503202059 21 298 9.7 32.2 0.00 0.00 0.00 27 1008.9
20260503201557 21 283 14.5 32.2 0.00 0.00 0.00 28 1009.0
20260503201056 21 263 14.5 22.5 0.00 0.00 0.00 27 1009.0
20260503200556 21 291 11.3 24.1 0.00 0.00 0.00 27 1009.1
20260503200111 21 246 9.7 25.7 0.00 0.00 0.00 28 1009.1
20260503195555 21 276 9.7 25.7 0.00 0.00 0.00 28 1009.1
20260503195140 21 259 9.7 24.1 0.00 0.00 0.00 28 1009.1
20260503194612 21 286 11.3 24.1 0.00 0.00 0.00 31 1009.2
20260503194057 21 276 9.7 29.0 0.00 0.00 0.00 29 1009.3
20260503193600 21 291 9.7 29.0 0.00 0.00 0.00 30 1009.4
20260503193106 21 325 12.9 29.0 0.00 0.00 0.00 30 1009.4
20260503192559 21 313 16.1 27.4 0.00 0.00 0.00 32 1009.5